User: anonymous   Login
Location: Altleiningen
(49.5078°N, 8.0741°E)
Time: 02:46:26
(UTC+00:00)
Language:

Cosmos 1503 Rocket - Orbit

View from above orbital plane
View from above orbital plane
View from above satellite
View from above satellite

Ground track
Ground track

The orbit data is extracted from the following two-line orbital elements,

1 14402U 83103B   21127.81775930  .00000084  00000-0  37928-4 0  9994
2 14402  74.0447 167.2429 0026583  16.2196 343.9801 14.36012517966244
Epoch (UTC): 07 May 2021 19:37:34
Eccentricity: 0.0026583
inclination: 74.0447°
perigee height: 753 km
apogee height: 791 km
right ascension of ascending node: 167.2429°
argument of perigee: 16.2196°
revolutions per day: 14.36012517
mean anomaly at epoch: 343.9801°
orbit number at epoch: 96624

The dashed part of the orbit path shows where the satellite is in the earth's shadow,  

DLR